Location: Fort Worth, Tx
(32.7431°N, 97.3695°W)
Time: 06:06:58
(UTC-05:00)

Tiros 1 - Pass Details

Date: 20 November 2024
Orbit: 622 x 653 km, 48.4° (Epoch: 05 December)

Event Time Altitude Azimuth Distance (km) Brightness Sun altitude
Rises 20:23:15 0° 317° (NW) 2,958 11.0 -24.6°
Reaches altitude 10° 20:26:04 10° 333° (NNW) 2,051 9.9 -25.1°
Enters shadow 20:27:49 17° 351° (N) 1,620 9.2 -25.5°
